• In Netherlands
  • List of Countries
  • For 7 days
  • Water Temperature
  • Satellite Maps
  • Weather Map
  • Weather Widgets
  • user-avatar
    Login

    Hourly Weather Vanadzor

    Today, 29 June, Thursday

    Time Temperature Precipitation Wind Pressure Humidity
    00:00 +15°C° 0.4 mm 1 mps 635 mmHg 93%
    01:00 +15°C° 1.3 mm 1 mps 634 mmHg 93%
    02:00 +15°C° 1.3 mm 1 mps 634 mmHg 94%
    03:00 +16°C° 0 mm 2 mps 635 mmHg 94%
    04:00 +16°C° 0.7 mm 2 mps 635 mmHg 93%
    05:00 +18°C° 0.7 mm 1 mps 635 mmHg 93%
    06:00 +18°C° 0.7 mm 1 mps 635 mmHg 92%
    07:00 +20°C° 0.3 mm 1 mps 636 mmHg 86%
    08:00 +21°C° 0.3 mm 1 mps 636 mmHg 80%
    09:00 +22°C° 0.3 mm 1 mps 636 mmHg 74%
    10:00 +23°C° 0.3 mm 1 mps 636 mmHg 68%
    11:00 +25°C° 0.3 mm 1 mps 636 mmHg 62%
    12:00 +26°C° 0.3 mm 1 mps 637 mmHg 56%
    13:00 +26°C° 0.4 mm 1 mps 636 mmHg 56%
    14:00 +26°C° 0.4 mm 1 mps 636 mmHg 57%
    15:00 +27°C° 0.4 mm 2 mps 636 mmHg 57%
    16:00 +26°C° 0.8 mm 2 mps 636 mmHg 62%
    17:00 +24°C° 0.8 mm 2 mps 636 mmHg 67%
    18:00 +23°C° 0.8 mm 2 mps 635 mmHg 72%
    19:00 +20°C° 0.5 mm 2 mps 635 mmHg 78%
    20:00 +19°C° 0.5 mm 1 mps 635 mmHg 83%
    21:00 +15°C° 0.5 mm 1 mps 634 mmHg 89%
    22:00 +15°C° 0.3 mm 1 mps 634 mmHg 89%
    23:00 +14°C° 0.3 mm 1 mps 634 mmHg 90%

    Tomorrow, 30 June, Friday

    Time Temperature Precipitation Wind Pressure Humidity
    00:00 +13°C° 0.3 mm 1 mps 634 mmHg 91%
    01:00 +13°C° 0.2 mm 1 mps 634 mmHg 92%
    02:00 +13°C° 0.2 mm 1 mps 634 mmHg 93%
    03:00 +12°C° 0.2 mm 1 mps 634 mmHg 94%
    04:00 +13°C° 0.1 mm 1 mps 634 mmHg 93%
    05:00 +14°C° 0.1 mm 1 mps 635 mmHg 91%
    06:00 +15°C° 0.1 mm 1 mps 635 mmHg 90%
    07:00 +18°C° 0 mm 1 mps 636 mmHg 80%
    08:00 +20°C° 0 mm 1 mps 636 mmHg 71%
    09:00 +22°C° 0 mm 1 mps 637 mmHg 61%
    10:00 +23°C° 0.1 mm 1 mps 637 mmHg 59%
    11:00 +24°C° 0.1 mm 2 mps 637 mmHg 56%
    12:00 +25°C° 0.1 mm 2 mps 637 mmHg 54%
    13:00 +25°C° 0.4 mm 2 mps 637 mmHg 55%
    14:00 +25°C° 0.4 mm 2 mps 636 mmHg 56%
    15:00 +25°C° 0.4 mm 2 mps 636 mmHg 57%
    16:00 +24°C° 0.7 mm 2 mps 636 mmHg 63%
    17:00 +23°C° 0.7 mm 2 mps 636 mmHg 68%
    18:00 +21°C° 0.7 mm 2 mps 636 mmHg 74%
    19:00 +19°C° 0.4 mm 2 mps 636 mmHg 79%
    20:00 +16°C° 0.4 mm 2 mps 635 mmHg 85%
    21:00 +14°C° 0.4 mm 1 mps 635 mmHg 90%
    22:00 +14°C° 0.1 mm 1 mps 635 mmHg 91%
    23:00 +14°C° 0.1 mm 1 mps 635 mmHg 91%

    Day after tomorrow, 1 July, Saturday

    Time Temperature Precipitation Wind Pressure Humidity
    00:00 +13°C° 0.1 mm 1 mps 636 mmHg 92%
    01:00 +13°C° 0 mm 1 mps 635 mmHg 92%
    02:00 +13°C° 0 mm 1 mps 635 mmHg 92%
    03:00 +12°C° 0 mm 1 mps 635 mmHg 92%
    04:00 +13°C° 0 mm 1 mps 636 mmHg 89%
    05:00 +14°C° 0 mm 1 mps 636 mmHg 87%
    06:00 +15°C° 0 mm 1 mps 637 mmHg 84%
    07:00 +18°C° 0 mm 1 mps 637 mmHg 74%
    08:00 +20°C° 0 mm 1 mps 638 mmHg 63%
    09:00 +22°C° 0 mm 1 mps 639 mmHg 52%
    10:00 +23°C° 0 mm 2 mps 639 mmHg 48%
    11:00 +24°C° 0 mm 2 mps 639 mmHg 44%
    12:00 +26°C° 0 mm 2 mps 639 mmHg 40%
    13:00 +26°C° 0 mm 2 mps 639 mmHg 40%
    14:00 +26°C° 0 mm 2 mps 638 mmHg 40%
    15:00 +27°C° 0 mm 2 mps 638 mmHg 41%
    16:00 +26°C° 0 mm 2 mps 638 mmHg 45%
    17:00 +25°C° 0 mm 2 mps 638 mmHg 50%
    18:00 +24°C° 0 mm 2 mps 637 mmHg 55%
    19:00 +20°C° 0.1 mm 2 mps 637 mmHg 62%
    20:00 +18°C° 0.1 mm 1 mps 636 mmHg 70%
    21:00 +14°C° 0.1 mm 1 mps 636 mmHg 78%
    22:00 +14°C° 0 mm 1 mps 636 mmHg 75%
    23:00 +13°C° 0 mm 1 mps 636 mmHg 73%

    2 July, Sunday

    Time Temperature Precipitation Wind Pressure Humidity
    00:00 +13°C° 0 mm 1 mps 636 mmHg 70%
    01:00 +13°C° 0 mm 1 mps 636 mmHg 70%
    02:00 +12°C° 0 mm 1 mps 636 mmHg 69%
    03:00 +12°C° 0 mm 1 mps 636 mmHg 68%
    04:00 +13°C° 0 mm 1 mps 636 mmHg 67%
    05:00 +14°C° 0 mm 1 mps 637 mmHg 66%
    06:00 +15°C° 0 mm 1 mps 637 mmHg 65%
    07:00 +19°C° 0 mm 1 mps 638 mmHg 56%
    08:00 +21°C° 0 mm 1 mps 638 mmHg 47%
    09:00 +24°C° 0 mm 1 mps 639 mmHg 39%
    10:00 +25°C° 0 mm 1 mps 639 mmHg 37%
    11:00 +26°C° 0 mm 2 mps 639 mmHg 36%
    12:00 +27°C° 0 mm 2 mps 639 mmHg 34%
    13:00 +28°C° 0 mm 2 mps 638 mmHg 35%
    14:00 +28°C° 0 mm 2 mps 638 mmHg 35%
    15:00 +28°C° 0 mm 2 mps 638 mmHg 36%
    16:00 +27°C° 0 mm 2 mps 637 mmHg 42%
    17:00 +26°C° 0 mm 1 mps 637 mmHg 47%
    18:00 +25°C° 0 mm 1 mps 636 mmHg 53%
    19:00 +22°C° 0 mm 1 mps 636 mmHg 63%
    20:00 +19°C° 0 mm 1 mps 635 mmHg 73%
    21:00 +15°C° 0 mm 1 mps 635 mmHg 83%
    22:00 +15°C° 0 mm 1 mps 635 mmHg 81%
    23:00 +15°C° 0 mm 1 mps 635 mmHg 79%

    3 July, Monday

    Time Temperature Precipitation Wind Pressure Humidity
    00:00 +14°C° 0 mm 1 mps 635 mmHg 77%
    01:00 +14°C° 0 mm 1 mps 635 mmHg 79%
    02:00 +13°C° 0 mm 1 mps 634 mmHg 80%
    03:00 +13°C° 0 mm 1 mps 634 mmHg 82%
    04:00 +14°C° 0 mm 1 mps 634 mmHg 79%
    05:00 +16°C° 0 mm 1 mps 635 mmHg 76%
    06:00 +18°C° 0 mm 1 mps 635 mmHg 73%
    07:00 +21°C° 0 mm 1 mps 636 mmHg 62%
    08:00 +23°C° 0 mm 1 mps 636 mmHg 52%
    09:00 +26°C° 0 mm 1 mps 637 mmHg 41%
    10:00 +27°C° 0 mm 1 mps 637 mmHg 38%
    11:00 +29°C° 0 mm 1 mps 637 mmHg 36%
    12:00 +30°C° 0 mm 2 mps 637 mmHg 33%
    13:00 +30°C° 0 mm 2 mps 637 mmHg 33%
    14:00 +30°C° 0 mm 2 mps 636 mmHg 34%
    15:00 +31°C° 0 mm 2 mps 636 mmHg 34%
    16:00 +29°C° 0 mm 1 mps 636 mmHg 40%
    17:00 +28°C° 0 mm 1 mps 635 mmHg 47%
    18:00 +27°C° 0 mm 1 mps 635 mmHg 54%
    19:00 +24°C° 0.1 mm 1 mps 634 mmHg 63%
    20:00 +20°C° 0.1 mm 1 mps 633 mmHg 73%
    21:00 +16°C° 0.1 mm 1 mps 632 mmHg 83%
    22:00 +15°C° 0 mm 1 mps 632 mmHg 83%
    23:00 +15°C° 0 mm 1 mps 632 mmHg 84%

    4 July, Tuesday

    Time Temperature Precipitation Wind Pressure Humidity
    00:00 +14°C° 0 mm 1 mps 632 mmHg 85%
    01:00 +14°C° 0 mm 1 mps 632 mmHg 85%
    02:00 +14°C° 0 mm 1 mps 632 mmHg 85%
    03:00 +13°C° 0 mm 1 mps 631 mmHg 85%
    04:00 +15°C° 0 mm 1 mps 632 mmHg 82%
    05:00 +18°C° 0 mm 1 mps 633 mmHg 79%
    06:00 +19°C° 0 mm 1 mps 634 mmHg 76%
    07:00 +22°C° 0 mm 1 mps 634 mmHg 64%
    08:00 +25°C° 0 mm 1 mps 635 mmHg 51%
    09:00 +28°C° 0 mm 1 mps 636 mmHg 39%
    10:00 +29°C° 0 mm 1 mps 636 mmHg 36%
    11:00 +30°C° 0 mm 1 mps 636 mmHg 34%
    12:00 +31°C° 0 mm 2 mps 636 mmHg 32%
    13:00 +32°C° 0.1 mm 1 mps 636 mmHg 33%
    14:00 +32°C° 0.1 mm 1 mps 635 mmHg 34%
    15:00 +32°C° 0.1 mm 1 mps 635 mmHg 35%
    16:00 +31°C° 0.2 mm 1 mps 635 mmHg 42%
    17:00 +29°C° 0.2 mm 1 mps 635 mmHg 48%
    18:00 +28°C° 0.2 mm 1 mps 634 mmHg 55%
    19:00 +25°C° 0.4 mm 1 mps 634 mmHg 63%
    20:00 +22°C° 0.4 mm 1 mps 633 mmHg 72%
    21:00 +19°C° 0.4 mm 1 mps 632 mmHg 81%
    22:00 +18°C° 0.4 mm 1 mps 632 mmHg 82%
    23:00 +18°C° 0.4 mm 1 mps 632 mmHg 83%
    Show more